Location: Hannover
(52.3723°N, 9.7339°E)
Time: 12:56:16
(UTC+01:00)

ISS - Visible Passes

Search period start: 21 November 2017 00:00
Search period end: 01 December 2017 00:00
Orbit: 402 x 407 km, 51.6° (Epoch: 21 November)

Date Brightness Start Highest point End Pass type
(mag) Time Alt. Az. Time Alt. Az. Time Alt. Az.
28 Nov -1.3 18:17:13 10° SSE 18:17:53 12° SSE 18:17:53 12° SSE visible
29 Nov -1.3 18:59:26 10° SW 19:00:27 17° SSW 19:00:27 17° SSW visible
30 Nov -2.2 18:07:33 10° SSW 18:10:10 22° SSE 18:10:17 22° SE visible
